Regional Weather Roundup
Issued by NWS

Home | Current Version | Previous Version | Graphics & Text | Print | Product List | Glossary On
Versions: 1 2 3 4 5 6 7 8 9 10 11 12 13 14 15 16 17 18 19 20 21 22 23 24 25 26 27 28 29 30 31 32 33 34 35 36 37 38 39 40 41 42 43 44 45 46 47 48 49 50
000
ASUS45 KPSR 010710
RWRAZ

ARIZONA HOURLY REGIONAL WEATHER ROUNDUP
NATIONAL WEATHER SERVICE PHOENIX AZ
1200 AM MST SAT AUG 01 2015

NOTE: FAIR INDICATES FEW OR NO CLOUDS BELOW 12,000 FEET WITH NO
SIGNIFICANT WEATHER AND/OR OBSTRUCTIONS TO VISIBILITY.

AZZ001>003-036-010800-
NORTHWEST ARIZONA

CITY           SKY/WX    TMP DP  RH WIND       PRES   REMARKS
BULLHEAD CITY  CLOUDY    99  54  22 SW8       29.85R
KINGMAN        CLOUDY    81  51  35 N6        30.08S
$$

AZZ004>008-015-016-018-010800-
NORTH CENTRAL ARIZONA

CITY           SKY/WX    TMP DP  RH WIND       PRES   REMARKS
GRAND CANYON   LGT RAIN  61  55  81 CALM      30.34F
WILLIAMS       CLOUDY    63  50  63 S6        30.41F
PRESCOTT       CLOUDY    67  64  90 S3        30.23S
FLAGSTAFF      CLOUDY    58  53  84 NW5       30.38F
PAYSON         CLOUDY    70  59  68 NE3       30.25F
PAGE           CLOUDY    83  49  30 N6        30.14S
$$

AZZ009>014-017-010800-
NORTHEAST ARIZONA

CITY           SKY/WX    TMP DP  RH WIND       PRES   REMARKS
WINSLOW        CLOUDY    72  59  63 CALM      30.23F
SAINT JOHNS    CLOUDY    69  58  67 SE6       30.28F
SHOW LOW       CLOUDY    61  55  82 SE5       30.36S
$$

AZZ023-010800-
GREATER PHOENIX AREA

CITY           SKY/WX    TMP DP  RH WIND       PRES   REMARKS
PHOENIX        CLOUDY    81  71  71 S5        29.94R
LUKE AFB       CLOUDY    81  73  78 W2        29.93S
DEER VALLEY    CLOUDY    84  63  49 S5        29.95R
SCOTTSDALE     CLOUDY    83  65  54 W7        29.96R
MESA-GATEWAY   MOCLDY    81  68  65 E5        29.97R
$$

AZZ027-028-010800-
SOUTHWEST MARICOPA COUNTY AND PINAL COUNTY

CITY           SKY/WX    TMP DP  RH WIND       PRES   REMARKS
CASA GRANDE    CLOUDY    79  70  73 CALM      29.95S
GILA BEND      FAIR      84  63  49 E8        29.90R
$$

AZZ503-504-507>509-010800-
SOUTHEAST ARIZONA

CITY           SKY/WX    TMP DP  RH WIND       PRES   REMARKS
TUCSON         CLOUDY    78  65  63 S12       30.07S
DAVIS-MONTHAN  MOCLDY    75  66  73 SE13      30.06R
NOGALES        PTCLDY    70  62  76 VRB3      30.14S
SIERRA VISTA   MOCLDY    67  63  87 NW3       30.22F
DOUGLAS          N/A    N/A N/A N/A MISG      30.17S
SAFFORD        CLOUDY    77  62  59 S7        30.13R
$$

AZZ020-021-025-026-031-010800-
SOUTHWEST ARIZONA

CITY           SKY/WX    TMP DP  RH WIND       PRES   REMARKS
YUMA           MOCLDY    97  64  33 E7        29.84S
$$

CAZ031-033-041-043-047-048-061-010800-
SOUTHERN CALIFORNIA

CITY           SKY/WX    TMP DP  RH WIND       PRES   REMARKS
DOWNTOWN L.A.  CLOUDY    68  64  87 CALM      29.96S
L.A. AIRPORT   CLOUDY    67  65  93 W8        29.97S FOG
SAN DIEGO      MOCLDY    70  63  78 W3        29.99S
BURBANK        CLEAR     72  65  78 S3        29.97S
ONTARIO        MOCLDY    74  63  68 W6        29.97S
RIVERSIDE      CLEAR     75  64  68 W5        29.97S
PALM SPRINGS   PTCLDY    91  59  33 CALM      29.86R
EL CENTRO NAS  CLEAR     89  40  17 VRB3      29.82R
IMPERIAL       CLEAR     87  46  24 W8        29.79S
BLYTHE         CLOUDY    92  65  40 SE9       29.84R
NEEDLES        CLOUDY    97  60  29 CALM      29.87R
$$

NVZ020-UTZ003-010800-
SOUTHERN NEVADA-UTAH

CITY           SKY/WX    TMP DP  RH WIND       PRES   REMARKS
LAS VEGAS      CLOUDY    93  53  25 S5        29.91F
SALT LAKE CITY PTCLDY    69  40  34 CALM      30.13R
$$

NMZ009-TXZ055-010800-
NEW MEXICO-WEST TEXAS

CITY           SKY/WX    TMP DP  RH WIND       PRES   REMARKS
ALBUQUERQUE    CLOUDY    70  59  68 W8        30.31S
EL PASO        MOCLDY    82  52  35 SE6       30.13S
$$


........................KEY........................
SKY/WX - SKY CONDITION/WEATHER
TMP    - TEMPERATURE IN FAHRENHEIT
DP     - DEW POINT IN FAHRENHEIT
RH     - RELATIVE HUMIDITY IN PERCENT
WIND   - DIRECTION AND SPEED IN MILES PER HOUR (MPH)
VRB    - VARIABLE WIND DIRECTION
PRES   - MEAN SEA LEVEL PRESSURE IN INCHES OF MERCURY
         F - FALLING PRESSURE   R - RISING PRESSURE
         S - STEADY PRESSURE
VSB    - VISIBILITY IN MILES
HX     - HEAT INDEX IN FAHRENHEIT
WCI    - WIND CHILL INDEX IN FAHRENHEIT
TC     - TEMPERATURE IN CELSIUS WHICH IS ALSO KNOWN AS
         TEMPERATURE IN CENTIGRADE
AFB    - AIR FORCE BASE
         LUKE AFB IS LUKE AIR FORCE BASE
         DAVIS-MONTHAN IS DAVIS-MONTHAN AIR FORCE BASE
NAS    - NAVAL AIR STATION
         EL CENTRO NAS IS EL CENTRO NAVAL AIR STATION
N/A    - NOT AVAILABLE



USA.gov is the U.S. government's official web portal to all federal, state and local government web resources and services.